EPWAEPGD

Guest
Details From EPWA - WARSZAWA Okecie
To EPGD - LECH WALESA
Flight Number -
Tags decoded
Created
Modified
Stats Distance 160 nm / 297 km
Max Altitude 0 ft / 0 m
Waypoints 3
Social Downloads 0
Likes 0
Share VATSIM

Download

Looking for another format? Having issues loading an existing format? Contact us
Advertisement - Login to hide

Notes

Requested: EPWA OLILA L621 RILAB T270 OSLOG OSLO2R EPGD Unmatched points: L621 T270 OSLOG OSLO2R

Route

EPWA OLILA EPGD

ID Type Via Altitude Latitude Longitude Leg Dist Tot Dist Heading (true) Name
O EPWA APT - 0 ft / 0 m 52.16509˚ 20.96692˚ - 0 nm - WARSZAWA Okecie
OLILA FIX - 0 ft / 0 m 52.70444˚ 20.32833˚ 39 nm 39 nm 324° / 324° -
O EPGD APT - 0 ft / 0 m 54.37617˚ 18.47188˚ 120 nm 160 nm 327° / 326° LECH WALESA

Altitude Profile

Advertisement - Login to hide

EPWA

Details ICAO EPWA (WAW)
Name WARSZAWA Okecie
Region Poland
Timezone Europe/Warsaw (UTC+2.0)
Stats Elevation 328 ft / 100 m (AMSL)
Location 52.165091° 20.966923°
Runways 2
Magnetic Variation 5.868° E

METAR

EPWA 211000Z 22011KT CAVOK 29/14 Q1010 NOSIG

Decode

TAF

TAF EPWA 210830Z 2109/2209 22012KT CAVOK TEMPO 2116/2124 VRB20G39KT 3000 TSRA BKN025CB PROB40 TEMPO 2117/2122 1200 TSGR BECMG 2118/2120 28012KT

Decode

Departure Runways

ID Width Length Bearing (true) Bearing (mag) Surface Threshold Offset Overrun Length
11 164 ft / 50 m 9,163 ft / 2,793 m 114.64° 108.77° Asphalt 0 ft / 0 m 476 ft / 145 m
15 197 ft / 60 m 12,112 ft / 3,692 m 151.85° 145.98° Asphalt 0 ft / 0 m 0 ft / 0 m
29 164 ft / 50 m 9,163 ft / 2,793 m 294.67° 288.80° Asphalt 1,608 ft / 490 m 0 ft / 0 m
33 197 ft / 60 m 12,112 ft / 3,692 m 331.87° 326.00° Asphalt 0 ft / 0 m 0 ft / 0 m

EPGD

Details ICAO EPGD (GDN)
Name LECH WALESA
Region Poland
Timezone Europe/Warsaw (UTC+2.0)
Stats Elevation 489 ft / 149 m (AMSL)
Location 54.376167° 18.471884°
Runways 1
Magnetic Variation 5.522° E

METAR

EPGD 211000Z 23014KT 180V260 CAVOK 28/10 Q1005

Decode

TAF

TAF TAF EPGD 210530Z 2106/2206 22007KT CAVOK TEMPO 2111/2121 4000 SHRA BKN020CB PROB40 TEMPO 2111/2117 VRB16G34KT 2000 TSRA BKN014CB BECMG 2114/2116 28010KT

Decode

Destination Runways

ID Width Length Bearing (true) Bearing (mag) Surface Threshold Offset Overrun Length
11 148 ft / 45 m 9,158 ft / 2,791 m 112.96° 107.44° Asphalt 0 ft / 0 m 0 ft / 0 m
29 148 ft / 45 m 9,158 ft / 2,791 m 293.00° 287.48° Asphalt 0 ft / 0 m 0 ft / 0 m

Approach Navaids

Runway Type Ident Frequency Range Bearing (true) Bearing (mag) Slope Elevation
29 Localiser IGDA 110.30 MHz 18 nm / 33 km 292.96° 287.44° - 489 ft / 149 m (AMSL)
29 Glidescope IGDA 110.30 MHz 10 nm / 19 km 292.98° 287.46° 2.90° 489 ft / 149 m (AMSL)
29 DME IGDA 110.30 MHz 18 nm / 33 km - - - 492 ft / 150 m (AMSL)

Popular Alternatives